"Pseudo-MPEC" for ZTF03Pd

Created 2019 Jun 25 11:07:22 UT using Find_Orb

Click here for an explanation of pseudo-MPECs

 
 Astrometry: 
     ZTF03Pd  C2019 05 31.24616017 13 34.65 -20 08 44.7    ~6LL7 20.14gUNEOCPI41
     ZTF03Pd  C2019 05 31.35087017 13 31.00 -20 08 28.9    ~6LL7 19.16rUNEOCPI41
     ZTF03Pd  C2019 06 03.26919017 11 50.95 -20 01 05.4    ~6LL7 19.63gUNEOCPI41
     ZTF03Pd  C2019 06 03.31419017 11 49.35 -20 00 58.7    ~6LL7 19.28rUNEOCPI41
     ZTF03Pd KC2019 06 05;*yHnhDccCxfwU_A'$dDid@@QtF:;gr1rqYf`#)I'iR6OM=-7;vV474
     ZTF03Pd KC2019 06 055-/c!%*t6kIB+'K/',xYBM`9ZxT0.D'oSDp2NDHQ6LMuSS*Z_)n\474
     ZTF03Pd KC2019 06 05VTuk,*!nN(c[L4nUXp,HB3DufN0LWX.4f]YsAZAI=++CsSxQ#^Fr474
     ZTF03Pd KC2019 06 05Du^L+d*cLr*dQW+exU(]:LVG$bJcbJ[`Fs2+8pIdhS(?04+bCgF7474
     ZTF03Pd 1C2019 06 0698db[gp@gCSr[#ul((e8pJ!m8!*+#B#B_^LTw9xPe3Sa3yipe\f5Q62
     ZTF03Pd 1C2019 06 067ZM8Yo;\kuH)Es'O^o\y\\CR!%?6pS.KQWfgI@bKFlp?MEXv'WY=Q62
     ZTF03Pd 1C2019 06 06T1Y*U)7Mkc$I)ELJ.wJTGD[lXM37kh/!-_DEPa#SkI%o1V?e#cI?Q62
     ZTF03Pd KC2019 06 07Xw-IBOL+*3$i1ItsMMdPS3acRgpji9Avbc%ho0!MS3vM,#!J-.]nE94
     ZTF03Pd KC2019 06 07Kitl_U]On$%0h+y7odg:PMr+QYmhNXeq1HF%jH1i_ZAstrometryE94
     ZTF03Pd KC2019 06 07C#\1rf^DK6#$+7\bV.s$TS*4CSEflY/J@v\%t.oQs7q0yMLQLY6aE94
     ZTF03Pd KC2019 06 08C`hi@Rm6rCrQ=ZFIat`X*_`ek(E[i!$*DH$vo:H9f0!FYb@?t$XZX31
     ZTF03Pd KC2019 06 08D/CaRxf\vh`r]TAredacted;vuuavA@^`2@rG!pMd94plTShvm;ZX31
     ZTF03Pd KC2019 06 0860w1Ks,l1H,wi$DDuK.4:$ZH1IEYdY[TCXeo+qap@mmcq8al=o[WX31
     ZTF03Pd KC2019 06 08M;9KL\^-6'?!vJM]@m*g0%qHw@]TGS4`q92TwsD%8FUMm6tw$*S]I47
     ZTF03Pd KC2019 06 08!Zu_iB8W]dqIrHC'5]RiPBc'FG[*H]wva@i?WSjKlIAt9^1k';gEI47
     ZTF03Pd KC2019 06 08B4l#ro:jl7RfKC3oJ8aMY[fqF1yayx*gja9_)R95rs`,UfDqmW,Z595
     ZTF03Pd KC2019 06 08OSk(:Dx1J`J0b.UC4N^P4mp2ddiqxr$CTh4qS_WXosfeNcyVG*jo595
     ZTF03Pd KC2019 06 09TYE*p.:L'(ax[F/9;click(Y0CYfDcV92M6WW-O@!!)cScb2$Dk^K88
     ZTF03Pd KC2019 06 09.h=t3[*LSSCMe*W++3`hP9-9U?qSdUaSL5fa?ln5F81vsp(,Vp\IK88
     ZTF03Pd HC2019 06 10WO$vF1;!rn(-4C8;*1k+abkq3(tjWxAXc\3[*;B_HxQ=%[Op;42$691
     ZTF03Pd HC2019 06 10Y]k;X5s00+tl/PZRnsTmJLL_UvC.XF#$9khIvbp:LFNX;!2b%84d691
     ZTF03Pd HC2019 06 10m0?6sQ9?U1wn?=R\gF.4uf)PRkVkY@^i9Obkh[FS2:/R1a4yaBg6691
     ZTF03Pd KC2019 06 14bpg:;C+t=j=W?ZHa;nn(b#ZsnL%j9,c)FXRRCvJo*H0yp$'2[a,y691
     ZTF03Pd KC2019 06 14/2XSN_C1,78.[4X5]b8mb.KCA,+'_nmqHsF-qWmso+'*s:?VV1#r691
     ZTF03Pd 9C2019 06 19@(;hGvhere';Cy=qEKhraK$B/w\).m:ee4H')6NYD#=atf_WD=y-G40
     ZTF03Pd 9C2019 06 19n66]+BH?jPIX(x_o31^O*C,N``5/PL131-[PweSXD60urc7W8uTyG40
     ZTF03Pd 9C2019 06 19#o_9$i?iVPwkZNW4`!$qUSQNB+U9.A.GZ26yl)forS]d'nxBI9%/G40
     ZTF03Pd HC2019 06 20D-Lfl[*+iL:6,L`(Li[cScX++'ax`qBmCb_XmkG?+7%1=?:icu,8691
     ZTF03Pd HC2019 06 20dwF=O,4q1Z9i'*6i'Y!DyogbjtX]84Z^R0kf[ERo^AvC2v290g8/691
     ZTF03Pd HC2019 06 20\%KMS]dlrDPJTujj@B_%\H*24wB5+^o0enOn@Nyj(t4ro12t)nv3691
     ZTF03Pd KC2019 06 20Z00Wf%IMDKAttaHs+*GsW*ij37fKQe\q?yvhLAmGoA.qnmUf22qUL29
     ZTF03Pd KC2019 06 20#^FC9LN$.Fw-v?3=2Zf.h][9%+M5.15+$a4\JZYW0xk(eKnsnRu)L29
     ZTF03Pd KC2019 06 20En+JS29axOF6Z_`nrr%K=-6BUcj-8t,`Y19lJTDy!Fj5_**2c]?pL29
     ZTF03Pd KC2019 06 20MK6,3(Zsi:*(`/]*.8*R'D]1V_t9YDfuJV'7^bd'Vodp$!Tf9^?@L29
     ZTF03Pd KC2019 06 20(,8;ZQtYqI]'Qtfm^G#-1se2MR%eKFH',`Bfl=yc@\kq01oXAVDnL01
     ZTF03Pd IC2019 06 20BVAN\aS\cZhI.os.Y:D$eU5*JG%ZktVo*^V]ts=bCtJ8m2KaWOM2L01
     ZTF03Pd IC2019 06 2016fjp1dM341qDIk@-a:2SbDYIexplanation!.Pg';#m`NX$Ul8fL01
     ZTF03Pd KC2019 06 20=]ic!0J$\If[(j6kt$rj[?P/wTdCG+a*tJ_^t!c1J)l-M(x,JlhiL01
     ZTF03Pd  C2019 06 22.18359 17 00 41.62 -19 15 27.8    ~6M5M 19.0 GVNEOCPI52
     ZTF03Pd  C2019 06 22.19028 17 00 41.38 -19 15 26.5    ~6M5M 19.1 GVNEOCPI52
     ZTF03Pd  C2019 06 22.19805 17 00 41.14 -19 15 26.0    ~6M5M 19.0 GVNEOCPI52
     ZTF03Pd  C2019 06 22.20500 17 00 40.88 -19 15 25.5    ~6M5M 19.3 GVNEOCPI52
     ZTF03Pd  C2019 06 23.23909 17 00 06.77 -19 13 10.3    ~6N6b       VNEOCPI52
     ZTF03Pd  C2019 06 23.24650 17 00 06.54 -19 13 09.6    ~6N6b 19.1 GVNEOCPI52
     ZTF03Pd  C2019 06 23.25390 17 00 06.28 -19 13 08.7    ~6N6b 18.8 GVNEOCPI52
     ZTF03Pd  C2019 06 24.28003 16 59 33.05 -19 10 58.0    ~6O7b 19.3 GVNEOCPI52
     ZTF03Pd  C2019 06 24.28631 16 59 32.85 -19 10 56.8    ~6O7b 19.6 GVNEOCPI52
     ZTF03Pd  C2019 06 24.29301 16 59 32.57 -19 10 55.8    ~6O7b 19.9 GVNEOCPI52
     ZTF03Pd  C2019 06 24.30113 16 59 32.31 -19 10 54.3    ~6O7b 19.4 GVNEOCPI52
     ZTF03Pd KC2019 06 24vQ@*dQ!K5OOt4#uQ4Z-b/_do/07R`irj+\v`-156,I:[N[5UBQ';K88
     ZTF03Pd KC2019 06 243j%%Ben;/Sw+9_=Nu#R5^,@usbLkDAX4F]W1Qru*Iwbw^TXM9k3:K88

Station data:
(474) Mount John Observatory, Lake Tekapo  (S43.987388 E170.464960)  New
   Zealand.  Observers A. C. Gilmore, P. M. Kilmartin. Measurer P. M.
   Kilmartin. 1.0-m f/7.7 reflector + CCD.
(595) Farra d'Isonzo  (N45.915734 E13.525780)  Italy.  Observers L.
   Bittesini, F. Fabris, E. Pettarin, F. Piani. Measurer E. Pettarin. 0.30-m
   f/4.5 reflector + CCD.
(691) Steward Observatory, Kitt Peak - Spacewatch  (N31.962174 W111.600327)
   US/Arizona.  Observer J. V. Scotti. 0.9-m f/3 reflector + CCD.
(E94) Gisborne (Possum Observatory)  (S38.629922 E177.883310)  New Zealand.
(G40) Slooh.com Canary Islands Observatory  (N28.299720 W16.508260)  Canary
   Islands (Spain).  Observers G. Gašparović, Y. Chen. 0.43-m f/6.8 Corrected
   Dall-Kirkham + CCD.
(I41) Palomar Mountain--ZTF  (N33.357340 W116.859780)  US/California. 1.2-m
   f/2.44 Oschin Schmidt + CCD.
(I47) Pierre Auger Observatory, Malargüe  (S35.495442 W69.449700)  Argentina.
(I52) Steward Observatory, Mt. Lemmon Station  (N32.442547 W110.788920)
   US/Arizona.  Observers T. A. Pruyne, B. M. Africano, E. J. Christensen, G.
   A. Farneth, D. C. Fuls, A. R. Gibbs, A. D. Grauer, H. Groeller, J. A.
   Johnson, R. A. Kowalski, S. M. Larson, G. J. Leonard, R. L. Seaman, F. C.
   Shelly. 1.0-m reflector + CCD.
(K88) GINOP-KHK, Piszkéstető  (N47.917622 E19.893600)  Hungary.  Observer K.
   Sárneczky. 0.60-m Schmidt + CCD.
(L01) Višnjan Observatory, Tičan  (N45.290900 E13.749300)  Croatia.
   Observers K. Korlević, E. Pettarin. Measurer E. Pettarin. 1.0-m f/2.9
   reflector + CCD.
(L29) Drebach-South Observatory, Windhoek  (S23.460102 E18.016900)  Namibia.
(Q62) iTelescope Observatory, Siding Spring  (S31.273289 E149.064420)
   Australia/NSW. 0.50-m f/6.8 astrograph + CCD + focal reducer, 0.70-m f/6.6
   astrograph + CCD.
(X31) Galileo Galilei Observatory, Oro Verde  (S31.823022 W60.520660)
   Argentina.

Orbital elements:  ZTF03Pd
   Perihelion 2019 Oct 27.020187 +/- 0.47 TT =  0:29:04 (JD 2458783.520187)
Epoch 2019 Jun 24.0 TT = JDT 2458658.5   Ju: 0.2620   Sa: 0.3834
M 351.94574622 +/- 0.023            (J2000 ecliptic)          AutoNEOCP
n   0.06442362 +/- 8.83e-5          Peri.   57.22309 +/- 0.10
a   6.16272241 +/- 0.00563          Node   234.10982 +/- 0.054
e   0.5315620 +/- 0.000882          Incl.    5.18659 +/- 0.014
P  15.30                   H 15.2   G  0.15   U  6.5  
q 2.88685327 +/- 0.00445    Q 9.43859156 +/- 0.0126
From 55 observations 2019 May 31-June 24; mean residual 0".49
Residuals in arcseconds: 
190531 I41  .03-  .03+    190608 595  .90+  .74-    190620 L01  .53+  .13-    
190531 I41  .32+  .19+    190608 595  .30-  1.0-    190620 L01  .14+  .22+    
190603 I41  .58-  .13+    190609 K88  .12+  .02+    190620 L01  .53+  .57-    
190603 I41  .05-  .11+    190609 K88  .01+  .80+    190620 L01  .56+  .22-    
190605 474  .02-  .12+    190610 691  .43-  .35+    190622 I52  .20-  .37+    
190605 474  .18-  .00     190610 691  .40-  .15+    190622 I52  .31-  .81+    
190605 474  .20-  .07+    190610 691  .41-  .25+    190622 I52  .10+  .32+    
190605 474  .08-  .05+    190614 691  .30-  .25+    190622 I52  .17-  .08-    
190606 Q62  .47-  .76-    190614 691  .17-  .11+    190623 I52  .31-  .43+    
190606 Q62  .47-  .52-    190619 G40  .01+  .21-    190623 I52  .03+  .18+    
190606 Q62  .48-  .48-    190619 G40  .03+  .39-    190623 I52  .06-  .13+    
190607 E94  .20-  .10+    190619 G40  .27-  .18+    190624 I52  .05+  .60-    
190607 E94  2.7+  .37+    190620 691  .26-  .19+    190624 I52  .21+  .21-    
190607 E94  1.1+  1.7+    190620 691  .06-  .01+    190624 I52  .57-  .07-    
190608 X31  .02-  .19+    190620 691  .26+  .10-    190624 I52  .38-  .39+    
190608 X31  .07-  .12+    190620 L29  .10+  .19-    190624 K88  .16+  .01-    
190608 X31  .06-  .60+    190620 L29  .40-  .31-    190624 K88  .20+  .26-    
190608 I47  .23+  1.6-    190620 L29  .04-  .27+    
190608 I47  .76-  .11-    190620 L29  .02+  .25+    

Ephemerides (geocentric):
Date (UTC) HH   RA              Dec         delta   r     elong  mag " sig PA
---- -- -- --  -------------   -----------  ------ ------ -----  --- ---- ---
2019 06 25 11  16 58 55.737   -19 08 26.05  2.0429 3.0255 161.9 19.7 .195 125
2019 06 25 12  16 58 54.432   -19 08 20.88  2.0429 3.0254 161.8 19.7 .199 125
2019 06 25 13  16 58 53.129   -19 08 15.71  2.0430 3.0253 161.8 19.7 .203 125
2019 06 25 14  16 58 51.827   -19 08 10.55  2.0431 3.0252 161.7 19.7 .207 125
2019 06 25 15  16 58 50.526   -19 08 05.39  2.0431 3.0251 161.7 19.7 .210 125
2019 06 25 16  16 58 49.226   -19 08 00.23  2.0432 3.0250 161.7 19.7 .214 125
2019 06 25 17  16 58 47.927   -19 07 55.08  2.0433 3.0249 161.6 19.7 .218 125
2019 06 25 18  16 58 46.629   -19 07 49.93  2.0434 3.0248 161.6 19.7 .222 124
2019 06 25 19  16 58 45.332   -19 07 44.78  2.0435 3.0247 161.5 19.7 .226 124
2019 06 25 20  16 58 44.037   -19 07 39.64  2.0435 3.0246 161.5 19.7 .230 124
2019 06 25 21  16 58 42.743   -19 07 34.51  2.0436 3.0246 161.4 19.7 .234 124
2019 06 25 22  16 58 41.449   -19 07 29.38  2.0437 3.0245 161.4 19.7 .238 124
2019 06 25 23  16 58 40.157   -19 07 24.25  2.0438 3.0244 161.3 19.7 .242 124
2019 06 26 00  16 58 38.866   -19 07 19.13  2.0438 3.0243 161.3 19.7 .246 124
2019 06 26 01  16 58 37.577   -19 07 14.01  2.0439 3.0242 161.3 19.7 .250 124
2019 06 26 02  16 58 36.288   -19 07 08.89  2.0440 3.0241 161.2 19.7 .254 123
